| time (UTC) | temp F | wind direction | speed knots | gust knots | rain 1hr in | rain 24hr in | rain mn in | humidity % | barometer mb |
| 20260510203108 | 44 | 69 | 0.0 | 0.0 | 0.00 | 0.00 | 0.00 | 92 | 1035.1 |
| 20260510202114 | 44 | 56 | 0.0 | 0.0 | 0.00 | 0.00 | 0.00 | 92 | 1035.0 |
| 20260510201047 | 44 | 56 | 0.0 | 0.0 | 0.00 | 0.00 | 0.00 | 92 | 1035.1 |
| 20260510200043 | 44 | 56 | 0.0 | 0.0 | 0.00 | 0.00 | 0.00 | 92 | 1035.1 |
| 20260510193922 | 44 | 56 | 0.0 | 0.0 | 0.00 | 0.00 | 0.00 | 92 | 1034.8 |
| 20260510192945 | 44 | 56 | 0.0 | 0.0 | 0.00 | 0.00 | 0.00 | 92 | 1034.7 |
| 20260510192006 | 44 | 56 | 0.0 | 0.0 | 0.00 | 0.00 | 0.00 | 92 | 1034.6 |
| 20260510184723 | 44 | 56 | 0.0 | 0.0 | 0.00 | 0.00 | 0.00 | 92 | 1034.1 |
| 20260510183735 | 44 | 56 | 0.0 | 0.0 | 0.00 | 0.00 | 0.00 | 92 | 1034.1 |
| 20260510182721 | 45 | 56 | 0.0 | 0.0 | 0.00 | 0.00 | 0.00 | 92 | 1034.0 |
| 20260510181746 | 45 | 56 | 0.0 | 0.0 | 0.00 | 0.01 | 0.00 | 92 | 1034.0 |
| 20260510180759 | 44 | 56 | 0.0 | 0.0 | 0.00 | 0.01 | 0.00 | 92 | 1034.0 |
| 20260510175801 | 45 | 56 | 0.0 | 0.0 | 0.00 | 0.01 | 0.00 | 91 | 1033.9 |
| 20260510174743 | 45 | 56 | 0.0 | 0.0 | 0.00 | 0.01 | 0.00 | 91 | 1033.9 |
| 20260510173803 | 45 | 56 | 0.0 | 0.0 | 0.00 | 0.01 | 0.00 | 92 | 1033.8 |
| 20260510172736 | 45 | 56 | 0.0 | 0.0 | 0.00 | 0.01 | 0.00 | 91 | 1033.8 |
| 20260510170531 | 46 | 56 | 0.0 | 0.0 | 0.00 | 0.01 | 0.00 | 91 | 1033.9 |
| 20260510164407 | 46 | 56 | 0.0 | 0.0 | 0.00 | 0.01 | 0.00 | 91 | 1033.9 |
| 20260510163358 | 46 | 56 | 0.0 | 0.0 | 0.00 | 0.01 | 0.00 | 91 | 1033.9 |
| 20260510162358 | 46 | 56 | 0.0 | 0.0 | 0.00 | 0.01 | 0.00 | 91 | 1033.9 |
| 20260510161350 | 47 | 56 | 0.0 | 0.0 | 0.00 | 0.01 | 0.00 | 91 | 1034.0 |
| 20260510160324 | 46 | 56 | 0.0 | 0.0 | 0.00 | 0.01 | 0.00 | 91 | 1034.1 |
| 20260510155307 | 47 | 56 | 0.0 | 0.0 | 0.00 | 0.02 | 0.00 | 91 | 1034.1 |
| 20260510154318 | 47 | 101 | 0.0 | 0.0 | 0.00 | 0.02 | 0.00 | 91 | 1034.1 |
| 20260510153251 | 47 | 101 | 0.0 | 0.0 | 0.00 | 0.02 | 0.00 | 91 | 1034.1 |
| 20260510152306 | 47 | 101 | 0.0 | 0.0 | 0.00 | 0.02 | 0.00 | 90 | 1034.1 |
| 20260510151232 | 48 | 325 | 0.0 | 0.0 | 0.00 | 0.02 | 0.00 | 90 | 1034.0 |
| 20260510150227 | 48 | 325 | 0.0 | 0.0 | 0.00 | 0.02 | 0.00 | 90 | 1034.1 |
| 20260510135337 | 49 | 325 | 0.0 | 0.0 | 0.00 | 0.01 | 0.01 | 89 | 1034.1 |
| 20260510134312 | 49 | 325 | 0.0 | 0.0 | 0.00 | 0.01 | 0.01 | 89 | 1034.0 |
| 20260510133252 | 49 | 315 | 0.0 | 0.0 | 0.00 | 0.01 | 0.01 | 89 | 1033.9 |
| 20260510132300 | 49 | 315 | 0.0 | 0.0 | 0.00 | 0.01 | 0.01 | 89 | 1033.9 |
| 20260510131242 | 49 | 315 | 0.0 | 0.0 | 0.00 | 0.01 | 0.01 | 88 | 1034.0 |
| 20260510130304 | 50 | 315 | 0.0 | 0.0 | 0.00 | 0.01 | 0.01 | 88 | 1034.1 |
| 20260510125307 | 50 | 315 | 0.0 | 0.0 | 0.00 | 0.01 | 0.01 | 88 | 1034.3 |
| 20260510124231 | 50 | 315 | 0.0 | 0.0 | 0.00 | 0.01 | 0.01 | 88 | 1034.3 |
| 20260510123213 | 51 | 315 | 0.0 | 0.0 | 0.00 | 0.01 | 0.01 | 88 | 1034.1 |
| 20260510122219 | 51 | 315 | 0.0 | 0.0 | 0.00 | 0.01 | 0.01 | 88 | 1034.3 |
| 20260510120046 | 51 | 315 | 0.0 | 0.0 | 0.00 | 0.01 | 0.01 | 87 | 1034.3 |
| 20260510113845 | 52 | 315 | 0.0 | 0.9 | 0.00 | 0.01 | 0.01 | 86 | 1034.1 |
| 20260510112818 | 52 | 315 | 0.0 | 0.0 | 0.00 | 0.01 | 0.01 | 86 | 1034.1 |
| 20260510110626 | 52 | 315 | 0.0 | 0.0 | 0.00 | 0.01 | 0.01 | 85 | 1033.8 |
| 20260510105620 | 53 | 315 | 0.0 | 0.0 | 0.00 | 0.01 | 0.01 | 85 | 1033.6 |
| 20260510104548 | 53 | 315 | 0.0 | 0.0 | 0.00 | 0.01 | 0.01 | 84 | 1033.7 |
| 20260510103518 | 53 | 315 | 0.0 | 0.0 | 0.00 | 0.01 | 0.01 | 84 | 1033.8 |
| 20260510102523 | 54 | 315 | 0.0 | 0.0 | 0.00 | 0.01 | 0.01 | 83 | 1033.7 |
| 20260510101513 | 54 | 315 | 0.0 | 0.0 | 0.00 | 0.01 | 0.01 | 83 | 1033.7 |
| 20260510100518 | 54 | 315 | 0.0 | 0.0 | 0.00 | 0.01 | 0.01 | 83 | 1033.6 |
| 20260510095513 | 55 | 315 | 0.0 | 0.0 | 0.00 | 0.01 | 0.01 | 82 | 1033.6 |
| 20260510094531 | 55 | 315 | 0.0 | 0.0 | 0.00 | 0.01 | 0.01 | 82 | 1033.6 |
| 20260510093506 | 55 | 315 | 0.0 | 0.0 | 0.00 | 0.01 | 0.01 | 81 | 1033.5 |
| 20260510092531 | 55 | 315 | 0.0 | 0.0 | 0.00 | 0.01 | 0.01 | 81 | 1033.5 |
| 20260510091529 | 55 | 315 | 0.0 | 0.0 | 0.00 | 0.01 | 0.01 | 81 | 1033.4 |
| 20260510090549 | 55 | 315 | 0.0 | 0.9 | 0.00 | 0.01 | 0.01 | 81 | 1033.3 |
| 20260510085604 | 55 | 225 | 0.0 | 0.0 | 0.00 | 0.01 | 0.01 | 80 | 1033.3 |
| 20260510084627 | 55 | 225 | 0.0 | 0.0 | 0.00 | 0.01 | 0.01 | 79 | 1033.2 |
| 20260510083615 | 55 | 225 | 0.0 | 0.0 | 0.00 | 0.01 | 0.01 | 79 | 1033.1 |
| 20260510082603 | 55 | 225 | 0.0 | 0.0 | 0.00 | 0.01 | 0.01 | 78 | 1033.1 |
| 20260510081543 | 55 | 225 | 0.0 | 0.0 | 0.00 | 0.01 | 0.01 | 76 | 1033.0 |
| 20260510075342 | 56 | 225 | 0.0 | 0.0 | 0.00 | 0.01 | 0.01 | 74 | 1032.8 |
| 20260510074404 | 57 | 225 | 0.0 | 0.0 | 0.00 | 0.01 | 0.01 | 74 | 1032.6 |
| 20260510072256 | 58 | 231 | 0.0 | 0.0 | 0.00 | 0.01 | 0.01 | 73 | 1032.6 |
| 20260510071235 | 58 | 223 | 0.0 | 1.7 | 0.00 | 0.01 | 0.01 | 72 | 1032.5 |
| 20260510070204 | 58 | 210 | 0.0 | 2.6 | 0.00 | 0.01 | 0.01 | 72 | 1032.4 |
| 20260510065139 | 59 | 184 | 0.0 | 4.3 | 0.00 | 0.01 | 0.01 | 71 | 1032.4 |
| 20260510064113 | 59 | 192 | 0.9 | 4.3 | 0.00 | 0.01 | 0.01 | 70 | 1032.4 |
| 20260510063113 | 60 | 181 | 0.0 | 2.6 | 0.00 | 0.01 | 0.01 | 69 | 1032.3 |
| 20260510060948 | 60 | 213 | 0.9 | 3.5 | 0.00 | 0.01 | 0.01 | 68 | 1032.3 |
| 20260510055919 | 61 | 222 | 0.0 | 5.2 | 0.00 | 0.01 | 0.01 | 68 | 1032.3 |
| 20260510053754 | 61 | 205 | 0.9 | 4.3 | 0.00 | 0.01 | 0.01 | 67 | 1032.2 |
| 20260510051620 | 61 | 257 | 0.9 | 4.3 | 0.00 | 0.01 | 0.01 | 67 | 1032.0 |
| 20260510050609 | 60 | 211 | 0.0 | 0.0 | 0.00 | 0.01 | 0.01 | 69 | 1032.0 |
| 20260510045538 | 60 | 180 | 0.9 | 4.3 | 0.00 | 0.01 | 0.01 | 67 | 1032.0 |
| 20260510044533 | 61 | 190 | 0.9 | 7.0 | 0.00 | 0.01 | 0.01 | 67 | 1032.2 |
| 20260510043544 | 61 | 180 | 0.0 | 7.0 | 0.00 | 0.01 | 0.01 | 67 | 1032.1 |
| 20260510042512 | 60 | 145 | 1.7 | 6.1 | 0.00 | 0.01 | 0.01 | 67 | 1032.0 |
| 20260510041445 | 60 | 194 | 0.0 | 7.0 | 0.00 | 0.01 | 0.01 | 69 | 1032.1 |
| 20260510040426 | 60 | 141 | 2.6 | 7.0 | 0.00 | 0.01 | 0.01 | 69 | 1032.2 |
| 20260510035446 | 60 | 203 | 1.7 | 7.0 | 0.00 | 0.01 | 0.01 | 70 | 1032.3 |
| 20260510033356 | 60 | 171 | 1.7 | 6.1 | 0.00 | 0.01 | 0.01 | 70 | 1032.3 |
| 20260510032354 | 60 | 169 | 1.7 | 7.0 | 0.00 | 0.01 | 0.01 | 71 | 1032.4 |
| 20260510031405 | 60 | 198 | 2.6 | 7.0 | 0.00 | 0.01 | 0.01 | 72 | 1032.4 |
| 20260510030415 | 60 | 183 | 1.7 | 5.2 | 0.00 | 0.01 | 0.01 | 71 | 1032.5 |
| 20260510025420 | 60 | 173 | 1.7 | 5.2 | 0.00 | 0.01 | 0.01 | 73 | 1032.5 |
| 20260510024430 | 59 | 180 | 1.7 | 4.3 | 0.00 | 0.01 | 0.01 | 73 | 1032.6 |
| 20260510023413 | 59 | 180 | 1.7 | 7.0 | 0.00 | 0.01 | 0.01 | 73 | 1032.8 |
| 20260510022343 | 59 | 186 | 2.6 | 7.0 | 0.00 | 0.01 | 0.01 | 73 | 1032.9 |
| 20260510021341 | 59 | 211 | 1.7 | 4.3 | 0.00 | 0.01 | 0.01 | 76 | 1032.9 |
| 20260510020341 | 59 | 188 | 1.7 | 5.2 | 0.00 | 0.01 | 0.01 | 77 | 1033.2 |
| 20260510015359 | 59 | 180 | 0.9 | 5.2 | 0.00 | 0.01 | 0.01 | 79 | 1033.2 |
| 20260510014352 | 59 | 194 | 0.0 | 3.5 | 0.00 | 0.01 | 0.01 | 84 | 1033.3 |
| 20260510013330 | 59 | 209 | 0.0 | 1.7 | 0.00 | 0.01 | 0.01 | 85 | 1033.4 |
| 20260510004912 | 57 | 199 | 0.0 | 0.0 | 0.00 | 0.02 | 0.01 | 93 | 1033.6 |
| 20260510003917 | 57 | 227 | 0.0 | 0.0 | 0.00 | 0.02 | 0.01 | 93 | 1033.7 |
| 20260510002920 | 57 | 200 | 0.0 | 0.0 | 0.00 | 0.02 | 0.01 | 94 | 1033.6 |
| 20260510000748 | 57 | 267 | 0.0 | 0.0 | 0.00 | 0.02 | 0.01 | 94 | 1033.7 |
| 20260509235807 | 57 | 283 | 0.0 | 0.0 | 0.00 | 0.02 | 0.01 | 94 | 1033.7 |
| 20260509233600 | 56 | 242 | 0.0 | 0.0 | 0.00 | 0.02 | 0.01 | 94 | 1033.7 |
| 20260509232550 | 56 | 290 | 0.0 | 0.0 | 0.00 | 0.02 | 0.01 | 94 | 1033.7 |
| 20260509225306 | 56 | 252 | 0.0 | 0.0 | 0.00 | 0.02 | 0.01 | 94 | 1033.4 |
| 20260509224318 | 56 | 207 | 0.0 | 0.0 | 0.00 | 0.02 | 0.01 | 94 | 1033.4 |
| 20260509222201 | 55 | 302 | 0.0 | 0.0 | 0.00 | 0.02 | 0.01 | 94 | 1033.2 |
| 20260509221147 | 55 | 318 | 0.0 | 0.0 | 0.00 | 0.02 | 0.01 | 94 | 1033.2 |
| 20260509220155 | 55 | 318 | 0.0 | 0.0 | 0.00 | 0.02 | 0.01 | 94 | 1033.0 |
| 20260509215152 | 55 | 318 | 0.0 | 0.0 | 0.00 | 0.02 | 0.01 | 94 | 1032.8 |
| 20260509214144 | 55 | 338 | 0.0 | 0.0 | 0.00 | 0.02 | 0.01 | 94 | 1032.6 |
| 20260509210813 | 55 | 177 | 0.0 | 0.0 | 0.00 | 0.02 | 0.01 | 94 | 1032.2 |
| 20260509205833 | 55 | 177 | 0.0 | 0.0 | 0.00 | 0.03 | 0.01 | 94 | 1032.2 |
| 20260509204836 | 55 | 177 | 0.0 | 0.0 | 0.00 | 0.03 | 0.01 | 94 | 1032.0 |
| 20260509203830 | 55 | 177 | 0.0 | 0.0 | 0.00 | 0.03 | 0.01 | 94 | 1031.9 |